Wind_Speed
24 24 25 26 27 28 28 27 28 29 31 32 34 34 35 35 36 34 32 28 33 35 37 36 34 30 30 31 28 28 32 37 37 34 29 20 22 22 18 17 10 7 10 8 4
18 18 18 18 19 20 21 22 23 24 25 27 30 32 34 36 36 34 32 30 32 37 40 37 39 33 35 36 35 35 40 39 33 31 30 27 22 31 29 23 15 11 11 9 15
10 11 12 12 13 14 15 17 18 19 20 22 25 28 30 33 32 29 29 28 32 37 41 41 39 40 40 40 41 43 46 35 32 30 30 29 29 30 35 36 22 18 22 22 24
8 9 10 11 12 13 13 14 14 14 15 17 20 21 24 25 17 21 22 22 25 36 41 41 41 45 49 49 45 46 48 42 36 35 34 33 34 37 35 35 31 40 34 34 36
9 9 8 9 10 12 13 15 15 17 19 22 24 24 24 21 20 27 32 31 27 25 35 41 45 46 50 51 48 50 50 47 42 40 37 38 38 39 44 38 36 36 40 39 39
6 7 9 11 13 15 16 16 17 19 23 23 27 31 32 25 16 21 27 28 29 32 34 36 44 45 49 51 50 53 51 48 47 44 42 42 44 42 51 42 45 45 45 46 44
6 7 8 9 12 15 17 18 20 21 23 25 29 28 33 25 21 20 25 28 32 36 37 36 34 43 51 49 51 53 50 45 49 48 47 45 51 57 49 44 47 46 43 43 45
6 8 11 13 16 18 19 20 21 21 23 25 24 29 22 24 21 25 20 25 33 37 41 33 32 37 45 44 48 37 48 54 54 45 45 40 59 56 51 48 49 46 44 45 44
9 11 13 15 17 19 20 21 24 24 22 21 18 26 23 24 24 22 28 25 29 36 37 39 35 36 40 38 34 40 44 46 44 45 34 44 62 53 48 46 51 48 48 47 46
12 13 16 17 18 20 21 19 20 20 19 22 18 14 20 20 20 19 21 26 25 26 32 33 32 34 40 41 37 38 44 32 31 29 31 35 61 51 48 45 48 49 51 54 56
13 14 17 18 19 21 22 25 21 18 15 15 13 15 22 18 17 19 18 24 23 15 12 20 30 44 46 49 41 13 20 17 24 17 20 33 44 45 44 45 47 47 48 49 52
15 16 18 21 21 23 24 28 29 26 16 9 12 13 21 26 26 21 20 19 26 19 11 16 31 37 35 30 39 32 20 16 17 21 20 29 36 42 41 47 49 47 46 44 43
16 17 19 21 22 21 23 26 25 25 21 8 13 16 21 23 22 26 25 22 21 25 18 18 18 23 31 26 22 26 34 30 24 15 21 27 43 45 46 48 48 47 45 43 41
19 19 20 23 20 20 24 23 24 21 11 11 12 12 27 23 12 19 20 17 15 22 23 20 18 20 15 28 30 24 18 11 11 15 25 18 14 37 42 46 45 43 39 38 34
21 20 22 23 17 20 21 21 21 15 5 14 15 21 23 14 19 19 17 19 16 17 23 24 23 18 16 19 19 27 32 25 17 16 20 29 18 50 25 37 38 42 41 40 37
21 21 21 18 15 20 21 20 16 5 4 13 17 21 19 13 19 17 17 16 22 28 22 30 31 26 18 10 15 16 18 19 14 19 15 26 16 52 43 46 39 34 33 28 22
22 21 21 16 16 20 20 16 5 1 11 10 24 25 15 22 19 16 20 11 12 7 11 12 24 26 27 22 17 14 16 5 4 5 13 16 20 54 3 9 5 3 5 3 7
23 20 18 15 18 19 18 13 2 6 11 18 23 22 14 24 18 18 18 11 9 9 10 7 5 19 18 21 16 14 23 8 6 6 6 19 19 23 19 39 39 31 21 17 10
22 19 16 15 19 16 16 6 5 10 13 17 26 15 18 22 18 20 19 9 14 12 4 4 3 4 15 12 15 11 22 27 4 4 3 12 31 36 9 15 13 8 12 8 7
20 18 14 16 18 15 16 10 11 10 16 18 18 14 19 24 21 19 13 6 10 11 12 4 6 3 5 7 10 8 10 14 11 4 5 9 19 19 13 28 19 11 10 14 12
20 16 13 17 16 15 15 14 14 9 13 16 18 21 21 20 19 20 8 12 8 15 9 6 8 10 9 9 11 13 20 11 15 21 4 2 5 2 4 11 17 13 11 13 12
22 14 16 16 14 19 17 17 14 10 14 13 16 12 15 13 23 21 14 14 11 16 13 7 6 9 15 13 12 11 12 16 17 15 23 12 11 5 8 6 7 7 10 4 11
24 16 17 11 11 21 19 18 11 13 15 13 13 9 14 17 18 10 17 20 15 16 7 8 5 6 4 3 7 14 20 20 22 17 19 5 11 10 10 4 5 9 14 8 14
25 19 18 12 21 21 19 15 12 13 13 16 15 14 16 24 18 18 25 23 9 13 17 14 13 14 9 7 11 14 14 14 13 15 21 28 26 44 29 22 15 18 15 2 17
24 21 20 17 17 19 15 16 14 16 19 18 16 19 20 25 30 25 17 20 24 26 20 17 17 16 17 17 16 17 23 22 25 27 19 21 22 44 44 39 26 21 19 8 19
22 22 23 21 20 20 13 15 15 16 18 19 19 24 23 28 28 27 27 32 32 28 15 15 18 17 18 19 16 22 26 28 33 38 40 31 31 35 38 33 27 17 17 9 20
25 24 22 21 22 19 15 17 18 18 15 24 23 23 28 23 26 29 28 22 27 31 19 20 14 9 11 10 11 21 27 31 40 42 41 36 31 33 39 35 20 18 18 7 20
Wind_Direction
280 280 280 281 281 281 282 283 284 281 279 278 277 276 274 268 264 262 259 249 241 242 241 237 237 236 239 241 241 240 234 238 238 238 227 229 205 198 199 170 166 132 128 136 155
283 282 282 281 283 286 289 289 287 285 286 285 281 279 277 273 270 267 261 250 238 238 242 237 237 232 233 238 235 235 238 243 244 243 242 235 222 221 220 225 209 219 208 231 284
291 295 299 300 301 300 300 301 304 308 306 300 292 287 282 280 282 284 271 256 240 235 238 237 233 234 232 231 233 236 243 250 249 251 252 238 243 233 230 230 232 222 248 233 257
322 322 322 325 328 333 337 339 342 338 329 318 306 301 293 289 297 285 270 260 245 234 234 236 234 233 235 232 231 237 244 245 249 248 249 247 246 243 239 237 242 242 262 240 250
336 347 360 10 15 13 9 4 358 347 340 333 328 322 317 315 293 268 266 262 254 243 235 234 233 233 236 240 236 237 242 245 247 248 249 253 249 254 245 246 254 259 259 254 256
17 25 27 19 11 6 4 359 351 350 345 343 339 335 337 333 308 278 264 258 249 242 237 234 235 233 236 237 238 243 246 245 246 247 248 251 250 254 252 254 260 258 260 258 260
20 19 16 5 359 358 359 352 343 345 342 340 340 343 346 330 311 297 263 242 245 241 234 234 234 232 232 235 236 239 243 245 247 246 248 249 254 244 246 249 252 255 261 260 258
347 349 351 352 350 349 352 347 340 339 339 342 342 348 357 357 330 308 290 255 240 235 231 224 235 233 230 231 235 240 242 245 240 246 247 248 254 251 252 253 253 256 259 259 254
328 333 336 337 340 336 339 342 338 336 339 343 342 353 6 357 349 326 302 270 256 244 232 222 231 234 227 225 231 234 238 242 244 243 243 241 251 256 255 261 260 259 258 258 259
316 322 325 329 329 328 328 332 333 332 341 353 359 6 2 1 351 330 305 270 266 257 240 215 217 228 223 214 219 226 232 236 245 250 238 241 253 256 258 258 259 261 260 259 257
317 320 321 325 325 324 324 328 335 349 338 2 13 12 357 345 359 350 312 267 262 257 235 217 220 221 227 226 224 243 226 228 230 237 235 248 259 261 264 260 258 255 255 256 255
324 323 326 326 327 329 331 339 342 339 354 355 9 345 350 342 341 347 318 281 258 248 258 241 236 234 234 235 230 227 228 226 229 225 239 248 252 255 255 257 258 260 260 262 263
333 328 329 328 329 331 334 331 333 333 326 312 331 335 341 335 340 344 337 329 257 245 252 262 246 245 244 241 238 243 242 252 257 221 233 261 262 255 254 257 258 257 261 262 264
336 335 333 331 328 333 333 330 329 330 314 331 334 323 324 326 319 347 326 322 274 252 251 263 253 251 263 241 238 241 233 233 243 258 258 258 282 272 257 256 254 256 255 256 261
330 336 330 331 324 331 332 327 325 325 337 336 334 337 328 304 316 321 326 283 284 260 242 251 244 255 265 261 247 251 246 249 250 248 267 258 286 270 272 263 259 258 259 262 263
328 330 330 327 320 331 332 325 322 318 277 325 329 338 347 319 328 317 328 286 275 273 249 257 248 238 246 256 240 248 227 233 243 240 254 250 236 275 266 266 275 277 271 261 250
330 328 332 328 320 331 331 336 305 198 319 313 333 343 346 342 335 339 342 313 294 312 258 276 235 234 231 252 253 231 212 156 179 196 233 224 212 243 45 194 195 264 189 354 275
341 333 333 325 323 331 334 345 271 298 320 322 332 332 326 349 343 337 341 340 330 298 290 254 223 227 233 239 233 245 212 182 171 188 228 216 227 241 268 255 265 276 271 290 285
344 338 328 325 328 333 344 343 357 327 325 321 327 326 323 337 335 339 335 344 335 337 355 336 304 238 197 215 207 211 215 216 284 244 198 210 248 256 253 240 234 228 300 305 274
347 338 325 326 332 338 353 345 335 321 310 309 309 298 301 323 329 336 324 327 334 339 341 317 306 267 255 219 212 223 201 202 200 208 229 243 248 239 217 253 267 289 260 279 247
350 342 335 331 333 341 345 334 318 341 332 323 312 298 300 312 319 321 286 310 295 332 331 294 261 263 248 214 222 214 236 229 230 234 210 298 268 158 192 257 256 273 274 267 216
356 351 341 336 340 335 329 330 310 322 328 318 321 305 297 304 311 306 279 305 309 314 320 291 282 273 282 269 233 223 227 236 236 235 246 268 280 115 294 260 253 261 333 187 187
356 357 349 343 320 332 322 327 316 317 333 337 334 311 294 295 312 293 286 287 273 287 292 289 259 303 318 43 215 227 230 234 249 257 255 235 234 234 179 155 14 320 349 165 173
350 359 356 349 336 326 321 330 329 329 335 326 317 320 297 317 306 290 294 293 274 275 280 276 267 251 243 288 298 277 251 233 253 252 254 248 261 246 249 270 321 340 339 107 171
347 347 355 340 348 340 340 328 325 335 321 332 318 322 319 308 306 299 292 284 278 287 275 268 262 271 276 277 260 281 271 254 240 249 257 256 253 255 259 268 287 329 323 333 187
337 341 343 353 346 343 338 335 327 314 316 316 305 315 315 303 296 296 292 290 283 279 237 237 258 274 287 285 275 274 263 257 254 244 250 255 263 258 264 273 277 316 325 277 195
332 331 339 347 349 340 341 328 324 321 325 313 313 314 312 318 309 304 299 297 283 270 252 243 249 261 272 277 282 279 268 273 249 242 242 241 252 266 265 262 259 293 326 225 197
Height
3106 3105 3104 3102 3100 3099 3097 3096 3094 3094 3092 3091 3090 3090 3091 3091 3093 3095 3100 3104 3104 3106 3105 3109 3112 3114 3116 3117 3119 3119 3117 3115 3118 3121 3124 3129 3131 3132 3132 3133 3134 3137 3139 3141 3143
3102 3100 3099 3098 3096 3094 3092 3091 3089 3089 3087 3086 3085 3083 3084 3083 3085 3088 3092 3093 3096 3097 3098 3101 3105 3106 3107 3109 3111 3110 3107 3109 3116 3118 3120 3125 3127 3127 3126 3128 3131 3134 3136 3138 3140
3099 3098 3096 3094 3092 3091 3089 3088 3087 3086 3083 3080 3077 3077 3076 3074 3077 3078 3078 3082 3085 3087 3089 3092 3097 3098 3097 3100 3101 3101 3096 3109 3112 3114 3117 3121 3121 3122 3120 3120 3127 3130 3133 3132 3133
3097 3095 3093 3091 3089 3087 3086 3085 3083 3081 3078 3075 3073 3072 3070 3071 3076 3069 3068 3072 3075 3077 3079 3083 3085 3088 3087 3089 3093 3094 3093 3101 3106 3108 3110 3112 3113 3111 3110 3114 3121 3124 3125 3126 3127
3096 3094 3092 3090 3089 3087 3084 3082 3080 3077 3074 3071 3068 3066 3066 3068 3066 3063 3061 3063 3067 3069 3070 3074 3076 3079 3078 3082 3087 3083 3088 3092 3097 3100 3104 3105 3104 3106 3102 3109 3115 3117 3118 3120 3120
3096 3094 3092 3090 3088 3086 3083 3081 3078 3076 3072 3068 3064 3060 3060 3060 3058 3056 3055 3056 3058 3058 3061 3064 3067 3072 3071 3073 3077 3079 3081 3084 3089 3092 3096 3098 3098 3098 3095 3106 3105 3108 3109 3111 3112
3096 3094 3092 3090 3088 3085 3082 3078 3074 3071 3068 3064 3060 3056 3055 3050 3047 3047 3048 3049 3048 3048 3050 3055 3060 3060 3062 3064 3068 3070 3072 3074 3078 3084 3087 3092 3087 3080 3094 3099 3097 3099 3101 3102 3104
3095 3093 3091 3088 3085 3082 3080 3076 3072 3068 3064 3060 3055 3053 3050 3048 3046 3043 3042 3041 3040 3039 3042 3049 3051 3052 3053 3057 3059 3062 3065 3064 3069 3075 3078 3083 3066 3077 3085 3089 3090 3091 3093 3094 3096
3095 3092 3090 3087 3084 3080 3078 3075 3069 3064 3060 3056 3053 3048 3046 3046 3043 3041 3039 3038 3036 3035 3035 3042 3041 3044 3048 3050 3052 3051 3050 3052 3061 3067 3072 3073 3054 3070 3078 3082 3082 3084 3085 3085 3086
3094 3092 3089 3086 3082 3078 3074 3074 3069 3062 3058 3053 3048 3048 3046 3043 3040 3037 3034 3033 3032 3030 3031 3032 3033 3035 3036 3040 3036 3038 3042 3048 3051 3056 3065 3065 3047 3062 3070 3073 3071 3073 3074 3075 3076
3092 3089 3086 3083 3079 3074 3070 3067 3068 3063 3053 3051 3048 3045 3041 3040 3037 3034 3031 3028 3028 3028 3027 3028 3029 3020 3024 3033 3038 3039 3041 3043 3047 3053 3057 3054 3049 3055 3059 3059 3058 3060 3062 3063 3064
3089 3087 3083 3078 3074 3070 3065 3060 3056 3054 3052 3049 3047 3044 3040 3036 3033 3032 3028 3026 3025 3024 3024 3025 3018 3024 3028 3031 3032 3035 3037 3038 3043 3047 3048 3047 3042 3045 3046 3047 3049 3051 3052 3054 3056
3087 3084 3080 3076 3072 3068 3063 3059 3055 3052 3049 3048 3045 3042 3039 3037 3032 3028 3024 3020 3019 3020 3022 3021 3021 3023 3024 3026 3029 3030 3033 3036 3040 3040 3041 3042 3030 3034 3036 3037 3041 3041 3043 3045 3046
3085 3081 3078 3073 3071 3065 3062 3057 3054 3050 3046 3047 3043 3041 3037 3033 3031 3027 3023 3021 3017 3016 3017 3016 3017 3018 3019 3020 3025 3026 3031 3033 3037 3039 3039 3042 3023 3022 3026 3025 3029 3032 3035 3037 3040
3081 3078 3074 3070 3068 3064 3061 3056 3052 3050 3049 3045 3041 3038 3034 3033 3029 3025 3021 3017 3014 3011 3014 3011 3012 3014 3015 3016 3020 3021 3027 3032 3035 3036 3037 3034 3035 3003 3018 3014 3018 3026 3027 3031 3034
3078 3075 3072 3068 3065 3062 3058 3054 3051 3051 3045 3043 3041 3036 3032 3030 3026 3021 3018 3014 3010 3007 3007 3004 3008 3009 3011 3012 3015 3019 3023 3029 3032 3033 3030 3027 3036 2993 3007 3007 3015 3018 3020 3023 3025
3074 3071 3067 3064 3062 3059 3055 3052 3050 3046 3046 3042 3036 3034 3032 3027 3022 3019 3014 3010 3009 3003 3000 2999 2998 3003 3006 3008 3011 3014 3016 3021 3029 3030 3019 3019 3027 2995 3000 3003 3008 3014 3017 3019 3020
3072 3068 3065 3062 3059 3056 3052 3049 3047 3045 3043 3040 3036 3033 3031 3026 3020 3017 3014 3010 3008 3002 3001 2996 2997 2998 3001 3003 3005 3008 3010 3008 3014 3016 3011 3018 3005 2991 2995 3002 3005 3011 3015 3015 3016
3070 3066 3063 3060 3057 3054 3051 3048 3047 3044 3042 3038 3034 3030 3028 3026 3022 3016 3012 3010 3008 3003 3001 2997 2997 2995 2996 2999 3002 3004 3004 3007 3008 3007 3008 3001 2992 2993 2997 2997 3002 3008 3011 3009 3009
3070 3065 3061 3058 3055 3052 3049 3047 3044 3042 3039 3037 3034 3031 3026 3022 3020 3017 3012 3010 3008 3006 3003 3000 2997 2995 2996 2998 2999 3000 3003 3005 3005 3006 3005 2991 2989 2987 2991 2997 3003 3005 3005 3004 3004
3067 3062 3060 3056 3053 3050 3047 3045 3042 3040 3037 3035 3031 3027 3025 3021 3018 3016 3012 3009 3007 3005 3002 3000 2999 2996 2995 2994 2996 2998 2997 3000 3000 2998 2995 2991 2984 2985 2991 2998 2998 3000 3002 3000 3002
3064 3060 3057 3053 3052 3048 3045 3042 3040 3037 3035 3031 3028 3024 3022 3020 3015 3013 3009 3008 3007 3003 3001 2999 2997 2994 2992 2992 2993 2993 2994 2996 2996 2993 2991 2992 2988 2982 2986 2989 2993 2997 2997 2995 2999
3062 3058 3054 3051 3049 3045 3042 3040 3036 3034 3031 3028 3026 3023 3020 3018 3014 3009 3007 3005 3004 3002 3001 2999 2997 2994 2991 2990 2988 2989 2991 2992 2991 2991 2985 2990 2983 2983 2983 2986 2991 2992 2992 2993 2997
3060 3056 3052 3048 3045 3042 3038 3035 3033 3031 3028 3026 3023 3020 3016 3012 3011 3004 3001 2999 2999 2999 2998 2996 2993 2992 2991 2990 2989 2987 2986 2987 2988 2985 2982 2980 2984 2977 2981 2983 2988 2992 2992 2992 2995
3058 3054 3052 3049 3044 3039 3035 3032 3030 3028 3026 3022 3019 3017 3014 3007 3002 2998 2996 2994 2993 2993 2992 2992 2989 2989 2988 2987 2985 2984 2981 2981 2979 2979 2979 2980 2982 2975 2979 2982 2987 2990 2990 2991 2994
3057 3053 3048 3045 3041 3037 3034 3031 3028 3026 3023 3019 3015 3012 3010 3003 2999 2991 2990 2986 2983 2983 2984 2985 2984 2983 2982 2981 2980 2976 2973 2971 2971 2971 2969 2975 2975 2978 2980 2983 2986 2988 2988 2989 2991
3052 3048 3045 3043 3039 3034 3032 3028 3026 3022 3019 3016 3012 3006 3001 2996 2991 2985 2981 2978 2976 2976 2977 2979 2980 2981 2978 2977 2976 2969 2964 2962 2960 2961 2965 2967 2974 2979 2978 2981 2983 2985 2986 2985 2988